Powrót do katalogu

DELTA 1 DEB

AktywnySSO
NORAD 21512·DEBRIS·🇺🇸 United States

Wystrzelony Jun 12, 1975 z Vandenberg Space Force Base

Loading…

Następne Przeloty (najbliższe 24 godziny)

TLE

ŚwieżeSource: Space-Track

Epoka: Sep 14, 2026, 15:45 UTC

1 21512U 75052GH  26257.65691840  .00000041  00000-0  15353-3 0  9996
2 21512  99.8824 151.0701 0037094 339.5413  49.7426 13.40618136720801

Śledź DELTA 1 DEB w czasie rzeczywistym z AllMySat

Download on the App Store